contact:dominique.lefevre@mio.osupytheas.fr, maurice.libes@osupytheas.fr, didier.mallarino@osupytheas.fr
Project:EMSO http://www.emso-fr.org/EMSO-France
Depth: 2436.0 m
Title:EMSO Ligure Ouest : Data MII capteur AQUADOPP
Date,Latitude,Longitude,X_East,Y_North,Z_Up,Amplitude_X,Amplitude_Y,Amplitude_Z,Batterie,SoundSpeed,Heading,Pitch,Roll,Pressure,TIS,Speed,Direction
, degrees North, degrees East, m.s-1, m.s-1,m.s-1, 1, 1, 1, Volt, m.s-1, degree, degree, degree, dbar, degree_C, m.s-1, degree
2020-09-13T00:04:03,42.805,6.029,0.048,0.0,-0.021,104.0,109.0,102.0,13.4,1505.2,328.3,-0.7,1.8,2470.392,13.3,0.048,90.0
2020-09-13T00:07:02,42.805,6.029,0.037,-0.037,0.01,105.0,109.0,101.0,13.4,1505.3,324.0,-0.7,1.8,2470.371,13.31,0.052,135.0
2020-09-13T00:10:03,42.805,6.029,0.043,-0.005,0.012,104.0,109.0,102.0,13.4,1505.3,326.2,-0.7,1.8,2470.414,13.31,0.043,96.6
2020-09-13T00:13:03,42.805,6.029,0.042,-0.009,-0.02,106.0,111.0,103.0,13.4,1505.3,326.4,-0.7,1.8,2470.343,13.32,0.042,102.1
2020-09-13T00:16:03,42.805,6.029,0.042,0.001,-0.017,107.0,113.0,102.0,13.3,1505.3,327.7,-0.7,1.8,2470.403,13.32,0.042,88.6
2020-09-13T00:19:03,42.805,6.029,0.031,0.006,-0.017,105.0,109.0,103.0,13.4,1505.3,324.3,-0.7,1.8,2470.378,13.32,0.031,79.0
2020-09-13T00:22:02,42.805,6.029,0.026,-0.025,-0.029,105.0,111.0,102.0,13.3,1505.3,327.7,-0.7,1.8,2470.365,13.32,0.036,133.9
2020-09-13T00:25:03,42.805,6.029,0.035,-0.011,0.0,106.0,111.0,102.0,13.3,1505.3,326.4,-0.7,1.8,2470.383,13.32,0.036,107.4
2020-09-13T00:28:03,42.805,6.029,0.031,-0.013,-0.006,105.0,111.0,102.0,13.4,1505.3,326.9,-0.7,1.8,2470.373,13.32,0.033,112.7
2020-09-13T00:31:03,42.805,6.029,0.021,0.001,-0.04,105.0,109.0,101.0,13.3,1505.3,324.2,-0.7,1.8,2470.355,13.32,0.021,87.3
2020-09-13T00:34:03,42.805,6.029,0.024,-0.002,0.007,105.0,109.0,101.0,13.3,1505.3,327.3,-0.7,1.9,2470.369,13.32,0.024,94.8
2020-09-13T00:37:02,42.805,6.029,0.051,-0.016,-0.014,104.0,108.0,102.0,13.4,1505.3,322.9,-0.7,1.8,2470.329,13.32,0.053,107.4
2020-09-13T00:40:03,42.805,6.029,0.045,0.006,0.01,104.0,111.0,102.0,13.4,1505.3,326.4,-0.7,1.8,2470.346,13.32,0.045,82.4
2020-09-13T00:43:03,42.805,6.029,0.048,-0.007,-0.001,106.0,109.0,102.0,13.4,1505.3,324.2,-0.7,1.8,2470.368,13.32,0.048,98.3
2020-09-13T00:46:03,42.805,6.029,0.039,0.0,0.012,106.0,111.0,101.0,13.4,1505.3,327.3,-0.7,1.8,2470.383,13.32,0.039,90.0
2020-09-13T00:49:03,42.805,6.029,0.034,-0.004,0.002,106.0,111.0,102.0,13.3,1505.3,323.7,-0.7,1.8,2470.338,13.32,0.034,96.7
2020-09-13T00:52:03,42.805,6.029,0.06,-0.006,-0.002,104.0,110.0,102.0,13.4,1505.3,326.7,-0.7,1.8,2470.338,13.32,0.06,95.7
2020-09-13T00:55:02,42.805,6.029,0.022,-0.007,-0.021,105.0,113.0,103.0,13.4,1505.3,324.9,-0.7,1.8,2470.389,13.32,0.023,107.6
2020-09-13T00:58:02,42.805,6.029,0.037,-0.001,-0.017,104.0,110.0,102.0,13.4,1505.3,324.0,-0.7,1.8,2470.395,13.32,0.037,91.5
2020-09-13T01:04:03,42.805,6.029,0.051,0.002,0.031,105.0,109.0,104.0,13.4,1505.2,323.5,-0.7,1.8,2470.42,13.3,0.051,87.8
2020-09-13T01:07:03,42.805,6.029,0.054,-0.017,-0.022,105.0,108.0,102.0,13.4,1505.3,326.8,-0.7,1.8,2470.397,13.31,0.056,107.5
2020-09-13T01:10:03,42.805,6.029,0.051,-0.024,-0.027,105.0,107.0,102.0,13.4,1505.3,324.2,-0.8,1.8,2470.376,13.31,0.056,115.2
2020-09-13T01:13:03,42.805,6.029,0.036,-0.01,-0.039,105.0,108.0,101.0,13.4,1505.3,327.9,-0.7,1.8,2470.395,13.32,0.037,105.5
2020-09-13T01:16:03,42.805,6.029,0.023,0.003,-0.01,104.0,110.0,101.0,13.4,1505.3,327.8,-0.7,1.8,2470.389,13.32,0.023,82.6
2020-09-13T01:19:03,42.805,6.029,0.048,-0.011,0.017,105.0,108.0,102.0,13.4,1505.3,326.0,-0.7,1.8,2470.359,13.32,0.049,102.9
2020-09-13T01:22:03,42.805,6.029,0.025,-0.035,0.017,104.0,110.0,103.0,13.4,1505.3,323.8,-0.7,1.8,2470.402,13.32,0.043,144.5
2020-09-13T01:25:03,42.805,6.029,0.04,-0.004,-0.037,105.0,110.0,101.0,13.4,1505.3,328.1,-0.7,1.9,2470.423,13.32,0.04,95.7
2020-09-13T01:28:03,42.805,6.029,0.04,0.0,-0.005,105.0,110.0,102.0,13.4,1505.3,327.7,-0.7,1.8,2470.407,13.32,0.04,90.0
2020-09-13T01:31:03,42.805,6.029,0.042,-0.014,0.0,106.0,112.0,101.0,13.4,1505.3,324.6,-0.7,1.9,2470.378,13.32,0.044,108.4
2020-09-13T01:34:02,42.805,6.029,0.04,-0.01,-0.007,104.0,109.0,101.0,13.4,1505.3,324.9,-0.7,1.8,2470.369,13.32,0.041,104.0
2020-09-13T01:37:03,42.805,6.029,0.048,-0.028,0.014,104.0,108.0,102.0,13.3,1505.3,326.2,-0.7,1.9,2470.416,13.32,0.055,120.3
2020-09-13T01:40:03,42.805,6.029,0.055,-0.007,-0.002,104.0,111.0,101.0,13.4,1505.3,325.6,-0.7,1.9,2470.414,13.32,0.055,97.3
2020-09-13T01:43:03,42.805,6.029,0.019,-0.021,-0.024,104.0,108.0,103.0,13.4,1505.3,324.5,-0.6,1.9,2470.383,13.32,0.028,137.9
2020-09-13T01:46:03,42.805,6.029,0.031,-0.001,-0.025,104.0,109.0,102.0,13.3,1505.3,325.5,-0.7,1.8,2470.361,13.32,0.031,91.8
2020-09-13T01:49:03,42.805,6.029,0.025,-0.034,-0.006,103.0,109.0,103.0,13.4,1505.3,324.9,-0.7,1.8,2470.396,13.32,0.042,143.7
2020-09-13T01:52:03,42.805,6.029,0.063,-0.003,0.008,104.0,107.0,103.0,13.3,1505.3,326.5,-0.7,1.9,2470.372,13.32,0.063,92.7
2020-09-13T01:55:03,42.805,6.029,0.01,-0.002,-0.026,104.0,110.0,102.0,13.4,1505.3,328.3,-0.7,1.8,2470.39,13.32,0.01,101.3
2020-09-13T01:58:03,42.805,6.029,0.056,0.0,0.003,104.0,112.0,102.0,13.4,1505.3,324.5,-0.7,1.8,2470.41,13.32,0.056,90.0
2020-09-13T02:04:03,42.805,6.029,0.04,-0.025,-0.006,105.0,110.0,102.0,13.4,1505.2,324.4,-0.8,1.8,2470.416,13.3,0.047,122.0
2020-09-13T02:07:03,42.805,6.029,0.042,-0.009,0.013,103.0,108.0,103.0,13.4,1505.3,324.8,-0.7,1.8,2470.393,13.31,0.042,102.1
2020-09-13T02:10:03,42.805,6.029,0.056,-0.01,-0.024,105.0,108.0,102.0,13.4,1505.3,328.1,-0.7,1.8,2470.414,13.31,0.056,100.1
2020-09-13T02:13:03,42.805,6.029,0.033,-0.022,-0.018,106.0,108.0,102.0,13.4,1505.3,326.5,-0.7,1.8,2470.417,13.32,0.039,123.7
2020-09-13T02:19:03,42.805,6.029,0.026,-0.006,0.009,104.0,110.0,101.0,13.4,1505.2,324.4,-0.7,1.8,2470.436,13.3,0.026,103.0
2020-09-13T02:22:02,42.805,6.029,0.041,-0.014,-0.014,103.0,110.0,102.0,13.4,1505.3,323.0,-0.7,1.9,2470.443,13.31,0.043,108.9
2020-09-13T02:25:03,42.805,6.029,0.035,-0.01,0.005,105.0,110.0,103.0,13.4,1505.3,324.5,-0.7,1.8,2470.418,13.31,0.036,105.9
2020-09-13T02:28:03,42.805,6.029,0.038,-0.01,-0.014,105.0,110.0,101.0,13.4,1505.3,324.1,-0.7,1.8,2470.417,13.32,0.039,104.7
2020-09-13T02:31:03,42.805,6.029,0.018,0.001,-0.005,104.0,112.0,101.0,13.4,1505.3,325.6,-0.7,1.8,2470.419,13.32,0.018,86.8
2020-09-13T02:34:03,42.805,6.029,0.021,-0.008,-0.022,104.0,112.0,101.0,13.4,1505.3,328.2,-0.7,1.9,2470.424,13.32,0.022,110.9
2020-09-13T02:37:03,42.805,6.029,0.023,0.002,0.016,104.0,111.0,101.0,13.4,1505.3,325.2,-0.7,1.8,2470.393,13.32,0.023,85.0
2020-09-13T02:40:03,42.805,6.029,0.03,-0.007,-0.012,104.0,111.0,101.0,13.4,1505.3,327.4,-0.7,1.8,2470.423,13.32,0.03,103.1
2020-09-13T02:46:03,42.805,6.029,0.036,-0.018,-0.018,103.0,109.0,101.0,13.4,1505.2,326.4,-0.8,1.8,2470.429,13.3,0.04,116.6
2020-09-13T02:49:03,42.805,6.029,0.051,-0.002,-0.014,104.0,108.0,101.0,13.4,1505.3,324.5,-0.7,1.8,2470.441,13.31,0.051,92.2
2020-09-13T02:52:03,42.805,6.029,0.036,-0.005,0.0,104.0,112.0,102.0,13.3,1505.3,328.1,-0.7,1.8,2470.448,13.31,0.036,97.9
2020-09-13T02:55:03,42.805,6.029,0.045,-0.011,-0.011,103.0,111.0,102.0,13.3,1505.3,323.5,-0.7,1.9,2470.427,13.32,0.046,103.7
2020-09-13T02:58:02,42.805,6.029,0.037,-0.021,0.012,104.0,110.0,103.0,13.4,1505.3,326.1,-0.7,1.8,2470.457,13.32,0.042,119.6
2020-09-13T03:04:03,42.805,6.029,0.028,-0.014,-0.031,103.0,109.0,102.0,13.4,1505.2,324.2,-0.7,1.8,2470.424,13.3,0.031,116.6
2020-09-13T03:07:03,42.805,6.029,0.032,-0.02,-0.032,105.0,111.0,102.0,13.3,1505.3,326.3,-0.7,1.8,2470.406,13.31,0.037,122.0
2020-09-13T03:10:03,42.805,6.029,0.048,-0.028,-0.006,104.0,110.0,102.0,13.3,1505.3,325.1,-0.7,1.9,2470.451,13.31,0.055,120.3
2020-09-13T03:13:03,42.805,6.029,0.044,-0.003,0.0,103.0,109.0,102.0,13.4,1505.3,326.2,-0.7,1.9,2470.435,13.32,0.044,93.9
2020-09-13T03:16:03,42.805,6.029,0.041,0.002,-0.009,103.0,113.0,102.0,13.4,1505.3,327.1,-0.7,1.8,2470.424,13.32,0.041,87.2
2020-09-13T03:19:03,42.805,6.029,0.019,-0.001,-0.012,104.0,112.0,101.0,13.4,1505.3,326.7,-0.7,1.8,2470.426,13.32,0.019,93.0
2020-09-13T03:22:03,42.805,6.029,0.025,-0.02,-0.028,104.0,111.0,102.0,13.3,1505.3,325.4,-0.7,1.8,2470.427,13.32,0.032,128.7
2020-09-13T03:25:03,42.805,6.029,0.021,-0.006,-0.019,105.0,110.0,101.0,13.3,1505.3,324.7,-0.7,1.8,2470.413,13.32,0.021,105.9
2020-09-13T03:28:03,42.805,6.029,0.057,-0.013,-0.004,103.0,112.0,102.0,13.3,1505.3,324.1,-0.7,1.8,2470.41,13.32,0.058,102.8
2020-09-13T03:31:03,42.805,6.029,0.024,-0.036,-0.013,104.0,110.0,101.0,13.4,1505.3,324.3,-0.7,1.8,2470.411,13.32,0.043,146.3
2020-09-13T03:34:03,42.805,6.029,0.029,-0.009,0.01,105.0,109.0,101.0,13.3,1505.3,325.9,-0.7,1.8,2470.419,13.32,0.03,107.2
2020-09-13T03:37:03,42.805,6.029,0.041,-0.006,-0.02,105.0,113.0,102.0,13.3,1505.3,325.3,-0.7,1.8,2470.407,13.32,0.041,98.3
2020-09-13T03:40:02,42.805,6.029,0.034,-0.01,-0.039,102.0,113.0,102.0,13.4,1505.3,324.6,-0.7,1.8,2470.373,13.32,0.035,106.4
2020-09-13T03:43:03,42.805,6.029,0.027,0.003,-0.008,103.0,113.0,102.0,13.4,1505.3,324.5,-0.7,1.8,2470.392,13.32,0.027,83.7
2020-09-13T03:46:03,42.805,6.029,0.045,0.005,-0.003,103.0,113.0,101.0,13.3,1505.3,326.9,-0.7,1.8,2470.431,13.32,0.045,83.7
2020-09-13T03:49:03,42.805,6.029,0.023,0.009,-0.017,103.0,113.0,102.0,13.4,1505.3,325.1,-0.7,1.8,2470.436,13.32,0.024,68.6
2020-09-13T03:52:03,42.805,6.029,0.039,0.001,0.014,104.0,112.0,101.0,13.4,1505.3,326.8,-0.8,1.9,2470.412,13.32,0.039,88.5
2020-09-13T03:55:02,42.805,6.029,0.062,-0.026,-0.003,103.0,110.0,101.0,13.4,1505.3,326.0,-0.7,1.8,2470.402,13.32,0.067,112.7
2020-09-13T03:58:03,42.805,6.029,0.045,0.002,-0.015,104.0,111.0,103.0,13.4,1505.3,326.3,-0.7,1.9,2470.4,13.32,0.045,87.5
2020-09-13T04:04:03,42.805,6.029,0.033,-0.015,-0.014,103.0,111.0,102.0,13.3,1505.2,327.7,-0.7,1.9,2470.427,13.3,0.036,114.4
2020-09-13T04:07:03,42.805,6.029,0.009,-0.001,-0.024,104.0,111.0,102.0,13.4,1505.3,324.6,-0.7,1.8,2470.4,13.31,0.009,96.3
2020-09-13T04:10:03,42.805,6.029,0.042,0.001,-0.009,104.0,113.0,103.0,13.3,1505.3,324.0,-0.7,1.8,2470.407,13.31,0.042,88.6
2020-09-13T04:13:02,42.805,6.029,0.046,-0.001,0.006,105.0,109.0,100.0,13.4,1505.3,325.5,-0.7,1.8,2470.43,13.32,0.046,91.2
2020-09-13T04:16:03,42.805,6.029,0.046,0.0,0.007,105.0,110.0,101.0,13.3,1505.3,323.8,-0.7,1.8,2470.392,13.32,0.046,90.0
2020-09-13T04:19:03,42.805,6.029,0.062,-0.002,-0.003,103.0,109.0,103.0,13.3,1505.3,327.4,-0.7,1.8,2470.401,13.32,0.062,91.8
2020-09-13T04:22:03,42.805,6.029,0.05,-0.015,-0.01,102.0,108.0,101.0,13.4,1505.3,327.9,-0.7,1.8,2470.447,13.32,0.052,106.7
2020-09-13T04:25:03,42.805,6.029,0.01,0.005,-0.014,104.0,111.0,102.0,13.4,1505.3,327.1,-0.7,1.8,2470.412,13.32,0.011,63.4
2020-09-13T04:28:03,42.805,6.029,0.034,0.0,0.014,104.0,110.0,102.0,13.4,1505.3,327.7,-0.7,1.8,2470.39,13.32,0.034,90.0
2020-09-13T04:31:03,42.805,6.029,0.025,-0.015,-0.009,105.0,112.0,101.0,13.4,1505.3,325.4,-0.7,1.8,2470.424,13.32,0.029,121.0
2020-09-13T04:34:03,42.805,6.029,0.021,-0.006,-0.016,104.0,110.0,101.0,13.4,1505.3,327.9,-0.7,1.8,2470.411,13.32,0.021,105.9
2020-09-13T04:37:03,42.805,6.029,0.049,-0.025,-0.014,106.0,112.0,101.0,13.4,1505.3,324.1,-0.7,1.8,2470.404,13.32,0.055,117.0
2020-09-13T04:40:03,42.805,6.029,0.018,-0.015,-0.001,104.0,109.0,102.0,13.4,1505.3,327.4,-0.7,1.8,2470.405,13.32,0.023,129.8
2020-09-13T04:43:03,42.805,6.029,0.055,-0.005,0.024,104.0,109.0,102.0,13.3,1505.3,323.0,-0.7,1.8,2470.392,13.32,0.055,95.2
2020-09-13T04:46:05,42.805,6.029,0.02,0.0,-0.009,105.0,113.0,101.0,13.4,1505.3,325.3,-0.7,1.8,2470.369,13.32,0.02,90.0
2020-09-13T04:49:03,42.805,6.029,0.055,-0.021,0.004,105.0,113.0,102.0,13.3,1505.3,327.1,-0.7,1.8,2470.385,13.32,0.058,110.9
2020-09-13T04:52:03,42.805,6.029,0.04,-0.006,0.001,103.0,110.0,103.0,13.4,1505.3,322.6,-0.7,1.8,2470.43,13.32,0.04,98.5
2020-09-13T04:55:03,42.805,6.029,0.055,-0.011,0.016,103.0,109.0,101.0,13.3,1505.3,326.5,-0.7,1.8,2470.4,13.32,0.056,101.3
2020-09-13T04:58:03,42.805,6.029,0.03,-0.014,-0.013,104.0,110.0,103.0,13.4,1505.3,325.1,-0.7,1.8,2470.382,13.32,0.033,115.0
2020-09-13T05:04:03,42.805,6.029,0.043,0.0,0.011,105.0,109.0,103.0,13.4,1505.2,328.3,-0.7,1.8,2470.449,13.3,0.043,90.0
2020-09-13T05:07:03,42.805,6.029,0.049,-0.016,-0.007,105.0,111.0,102.0,13.4,1505.3,325.3,-0.7,1.8,2470.414,13.31,0.051,108.1
2020-09-13T05:10:02,42.805,6.029,0.041,-0.013,-0.017,105.0,109.0,101.0,13.3,1505.3,325.0,-0.7,1.8,2470.428,13.31,0.043,107.6
2020-09-13T05:13:03,42.805,6.029,0.042,-0.026,-0.011,103.0,110.0,101.0,13.4,1505.3,326.8,-0.7,1.8,2470.418,13.32,0.049,121.8
2020-09-13T05:16:03,42.805,6.029,0.014,-0.011,-0.007,104.0,113.0,100.0,13.4,1505.3,324.8,-0.8,1.8,2470.419,13.32,0.017,128.2
2020-09-13T05:19:03,42.805,6.029,0.019,-0.011,0.0,103.0,107.0,101.0,13.3,1505.3,324.8,-0.7,1.8,2470.41,13.32,0.021,120.1
2020-09-13T05:22:03,42.805,6.029,0.024,0.005,-0.026,104.0,114.0,101.0,13.4,1505.3,324.9,-0.7,1.9,2470.437,13.32,0.024,78.2
2020-09-13T05:25:03,42.805,6.029,0.017,-0.012,-0.012,105.0,111.0,102.0,13.4,1505.3,326.3,-0.7,1.9,2470.396,13.32,0.02,125.2
2020-09-13T05:28:02,42.805,6.029,0.03,-0.001,0.002,103.0,111.0,103.0,13.3,1505.3,324.2,-0.7,1.8,2470.398,13.32,0.03,91.9
2020-09-13T05:31:03,42.805,6.029,0.04,-0.005,-0.021,104.0,114.0,100.0,13.3,1505.3,327.2,-0.7,1.8,2470.397,13.32,0.04,97.1
2020-09-13T05:34:03,42.805,6.029,0.02,0.004,-0.009,104.0,111.0,102.0,13.4,1505.3,326.2,-0.7,1.8,2470.385,13.32,0.02,78.7
2020-09-13T05:37:03,42.805,6.029,0.031,-0.015,0.02,104.0,112.0,102.0,13.4,1505.3,326.2,-0.7,1.8,2470.386,13.32,0.034,115.8
2020-09-13T05:40:02,42.805,6.029,0.038,-0.001,-0.036,104.0,110.0,102.0,13.3,1505.3,322.6,-0.7,1.8,2470.374,13.32,0.038,91.5
2020-09-13T05:43:03,42.805,6.029,0.028,-0.015,-0.031,105.0,113.0,102.0,13.4,1505.3,326.6,-0.7,1.8,2470.387,13.32,0.031,118.2
2020-09-13T05:46:03,42.805,6.029,0.014,0.011,-0.044,103.0,112.0,102.0,13.4,1505.3,326.1,-0.7,1.8,2470.401,13.32,0.017,51.8
2020-09-13T05:49:03,42.805,6.029,0.027,-0.009,-0.021,104.0,113.0,102.0,13.4,1505.3,327.7,-0.7,1.8,2470.38,13.32,0.028,108.4
2020-09-13T05:52:03,42.805,6.029,0.036,-0.015,-0.002,103.0,113.0,102.0,13.4,1505.3,323.5,-0.7,1.9,2470.395,13.32,0.039,112.6
2020-09-13T05:55:03,42.805,6.029,0.019,-0.014,-0.012,104.0,112.0,102.0,13.4,1505.3,324.8,-0.7,1.9,2470.386,13.32,0.023,126.4
2020-09-13T05:58:03,42.805,6.029,0.024,0.0,-0.034,104.0,113.0,102.0,13.4,1505.3,325.7,-0.7,1.8,2470.361,13.32,0.024,90.0
2020-09-13T06:04:03,42.805,6.029,0.057,-0.022,0.008,104.0,109.0,103.0,13.3,1505.2,327.4,-0.7,1.8,2470.4,13.3,0.061,111.1
2020-09-13T06:07:03,42.805,6.029,0.039,-0.022,-0.014,104.0,113.0,102.0,13.3,1505.3,325.5,-0.7,1.8,2470.392,13.31,0.044,119.4
2020-09-13T06:10:03,42.805,6.029,0.039,-0.019,-0.007,105.0,112.0,102.0,13.4,1505.3,327.9,-0.7,1.8,2470.416,13.31,0.043,116.0
2020-09-13T06:13:03,42.805,6.029,0.023,-0.015,-0.029,103.0,109.0,103.0,13.4,1505.3,326.3,-0.7,1.8,2470.402,13.32,0.027,123.1
2020-09-13T06:16:05,42.805,6.029,0.032,-0.003,-0.005,106.0,113.0,101.0,13.4,1505.3,327.1,-0.7,1.8,2470.406,13.32,0.032,95.4
2020-09-13T06:19:02,42.805,6.029,0.031,-0.004,-0.019,106.0,111.0,102.0,13.3,1505.3,326.1,-0.7,1.9,2470.372,13.32,0.031,97.3
2020-09-13T06:22:02,42.805,6.029,0.034,-0.002,-0.017,104.0,113.0,103.0,13.4,1505.3,327.2,-0.7,1.8,2470.343,13.32,0.034,93.4
2020-09-13T06:25:02,42.805,6.029,0.024,-0.005,-0.025,104.0,113.0,102.0,13.3,1505.3,323.6,-0.8,1.8,2470.37,13.32,0.024,101.8
2020-09-13T06:28:03,42.805,6.029,0.033,-0.007,-0.012,104.0,114.0,101.0,13.3,1505.3,326.3,-0.7,1.8,2470.386,13.32,0.033,102.0
2020-09-13T06:31:06,42.805,6.029,0.024,-0.004,0.006,104.0,115.0,101.0,13.3,1505.3,325.8,-0.7,1.8,2470.379,13.32,0.024,99.5
2020-09-13T06:34:03,42.805,6.029,0.015,-0.006,-0.062,104.0,111.0,102.0,13.3,1505.3,325.8,-0.7,1.8,2470.328,13.32,0.016,111.8
2020-09-13T06:37:02,42.805,6.029,0.031,0.007,-0.005,104.0,115.0,102.0,13.4,1505.3,325.8,-0.7,1.8,2470.394,13.32,0.031,77.3
2020-09-13T06:40:02,42.805,6.029,0.031,0.008,0.026,104.0,115.0,102.0,13.4,1505.3,325.0,-0.7,1.8,2470.376,13.32,0.032,75.5
2020-09-13T06:43:03,42.805,6.029,0.038,0.002,0.013,104.0,113.0,102.0,13.3,1505.3,326.3,-0.6,1.8,2470.376,13.32,0.038,87.0
2020-09-13T06:46:03,42.805,6.029,0.045,-0.007,-0.018,103.0,115.0,102.0,13.4,1505.3,324.7,-0.7,1.8,2470.384,13.32,0.045,98.8
2020-09-13T06:49:03,42.805,6.029,0.049,-0.003,-0.003,104.0,114.0,102.0,13.4,1505.3,323.5,-0.7,1.8,2470.392,13.32,0.049,93.5
2020-09-13T06:52:03,42.805,6.029,0.048,-0.02,-0.052,104.0,114.0,101.0,13.4,1505.3,326.2,-0.7,1.8,2470.353,13.32,0.052,112.6
2020-09-13T06:55:03,42.805,6.029,0.046,-0.011,-0.007,105.0,114.0,101.0,13.4,1505.3,327.2,-0.7,1.8,2470.338,13.32,0.047,103.4
2020-09-13T06:58:03,42.805,6.029,0.054,-0.011,-0.026,103.0,113.0,102.0,13.3,1505.3,324.5,-0.7,1.8,2470.406,13.32,0.055,101.5
2020-09-13T07:04:03,42.805,6.029,0.035,-0.006,-0.035,104.0,113.0,103.0,13.3,1505.2,325.2,-0.7,1.8,2470.398,13.3,0.035,99.7
2020-09-13T07:07:02,42.805,6.029,0.056,0.0,-0.006,104.0,115.0,102.0,13.4,1505.3,326.3,-0.7,1.9,2470.382,13.31,0.056,90.0
2020-09-13T07:10:03,42.805,6.029,0.046,-0.024,0.014,103.0,115.0,101.0,13.4,1505.3,324.6,-0.7,1.8,2470.385,13.31,0.051,117.6
2020-09-13T07:13:03,42.805,6.029,0.035,-0.014,0.005,104.0,117.0,101.0,13.4,1505.3,324.5,-0.7,1.9,2470.371,13.32,0.037,111.8
2020-09-13T07:16:03,42.805,6.029,0.029,-0.01,-0.037,103.0,116.0,101.0,13.3,1505.3,324.1,-0.7,1.8,2470.323,13.32,0.03,109.0
2020-09-13T07:19:03,42.805,6.029,0.044,-0.011,0.0,105.0,116.0,102.0,13.4,1505.3,327.7,-0.7,1.9,2470.386,13.32,0.045,104.0
2020-09-13T07:22:03,42.805,6.029,0.008,-0.019,-0.024,104.0,111.0,101.0,13.4,1505.3,327.9,-0.7,1.8,2470.382,13.32,0.02,157.2
2020-09-13T07:25:02,42.805,6.029,0.042,-0.01,0.017,104.0,114.0,101.0,13.4,1505.3,327.0,-0.7,1.9,2470.357,13.32,0.043,103.4
2020-09-13T07:28:03,42.805,6.029,0.03,-0.013,-0.015,103.0,116.0,102.0,13.4,1505.3,326.0,-0.7,1.9,2470.407,13.32,0.032,113.4
2020-09-13T07:31:03,42.805,6.029,0.05,-0.021,-0.041,103.0,115.0,102.0,13.4,1505.3,323.6,-0.7,1.8,2470.4,13.32,0.054,112.8
2020-09-13T07:34:03,42.805,6.029,0.061,0.001,0.016,102.0,112.0,102.0,13.4,1505.3,324.5,-0.7,1.8,2470.344,13.32,0.061,89.1
2020-09-13T07:37:03,42.805,6.029,0.048,-0.009,-0.009,104.0,114.0,101.0,13.4,1505.3,323.4,-0.7,1.8,2470.384,13.32,0.048,100.6
2020-09-13T07:40:03,42.805,6.029,0.034,0.003,-0.026,105.0,112.0,103.0,13.3,1505.3,324.5,-0.7,1.8,2470.344,13.32,0.034,85.0
2020-09-13T07:43:03,42.805,6.029,0.051,0.004,0.013,105.0,115.0,102.0,13.4,1505.3,323.2,-0.7,1.8,2470.335,13.32,0.051,85.5
2020-09-13T07:46:03,42.805,6.029,0.047,-0.014,-0.013,104.0,114.0,100.0,13.4,1505.3,324.4,-0.7,1.8,2470.322,13.32,0.049,106.6
2020-09-13T07:49:03,42.805,6.029,0.044,0.006,-0.011,104.0,112.0,103.0,13.3,1505.3,324.9,-0.7,1.8,2470.32,13.32,0.044,82.2
2020-09-13T07:52:03,42.805,6.029,0.041,-0.003,0.005,104.0,117.0,101.0,13.4,1505.3,324.8,-0.7,1.9,2470.314,13.32,0.041,94.2
2020-09-13T07:55:03,42.805,6.029,0.057,-0.001,-0.007,104.0,113.0,102.0,13.4,1505.3,325.8,-0.7,1.8,2470.31,13.32,0.057,91.0
2020-09-13T07:58:03,42.805,6.029,0.047,0.007,0.011,104.0,115.0,102.0,13.4,1505.3,324.9,-0.7,1.8,2470.351,13.32,0.047,81.5
2020-09-13T08:04:02,42.805,6.029,0.031,-0.002,0.012,104.0,114.0,102.0,13.4,1505.2,324.3,-0.7,1.8,2470.393,13.3,0.031,93.7
2020-09-13T08:07:03,42.805,6.029,0.031,-0.001,-0.03,104.0,111.0,101.0,13.4,1505.3,326.3,-0.7,1.8,2470.388,13.31,0.031,91.8
2020-09-13T08:10:03,42.805,6.029,0.029,-0.004,-0.012,103.0,111.0,102.0,13.3,1505.3,325.4,-0.7,1.9,2470.387,13.31,0.029,97.8
2020-09-13T08:13:03,42.805,6.029,0.062,-0.026,0.026,103.0,112.0,101.0,13.4,1505.3,325.8,-0.7,1.8,2470.358,13.32,0.067,112.7
2020-09-13T08:16:03,42.805,6.029,0.03,-0.006,-0.01,103.0,112.0,102.0,13.4,1505.3,327.0,-0.7,1.8,2470.357,13.32,0.03,101.3
2020-09-13T08:19:03,42.805,6.029,0.034,0.017,-0.002,103.0,113.0,103.0,13.4,1505.3,324.3,-0.7,1.9,2470.322,13.32,0.038,63.4
2020-09-13T08:22:02,42.805,6.029,0.038,-0.022,-0.003,104.0,113.0,102.0,13.4,1505.3,324.9,-0.7,1.8,2470.361,13.32,0.043,120.1
2020-09-13T08:25:03,42.805,6.029,0.044,0.011,0.006,104.0,116.0,102.0,13.4,1505.3,324.5,-0.7,1.8,2470.353,13.32,0.045,76.0
2020-09-13T08:28:03,42.805,6.029,0.01,-0.013,-0.033,105.0,117.0,102.0,13.3,1505.3,328.1,-0.7,1.8,2470.371,13.32,0.016,142.4
2020-09-13T08:31:03,42.805,6.029,0.028,0.0,0.013,104.0,114.0,102.0,13.4,1505.3,327.3,-0.7,1.8,2470.368,13.32,0.028,90.0
2020-09-13T08:34:03,42.805,6.029,0.044,-0.01,-0.012,103.0,114.0,102.0,13.3,1505.3,323.4,-0.7,1.8,2470.331,13.32,0.045,102.8
2020-09-13T08:37:03,42.805,6.029,0.026,-0.003,-0.007,103.0,112.0,102.0,13.3,1505.3,322.8,-0.7,1.8,2470.358,13.32,0.026,96.6
2020-09-13T08:40:03,42.805,6.029,0.044,0.006,-0.023,104.0,113.0,102.0,13.4,1505.3,325.1,-0.7,1.8,2470.319,13.32,0.044,82.2
2020-09-13T08:43:03,42.805,6.029,0.045,0.004,-0.011,104.0,115.0,102.0,13.3,1505.3,326.5,-0.7,1.8,2470.35,13.32,0.045,84.9
2020-09-13T08:46:03,42.805,6.029,0.052,0.009,0.011,104.0,116.0,103.0,13.4,1505.3,325.4,-0.7,1.9,2470.336,13.32,0.052,80.2
2020-09-13T08:49:03,42.805,6.029,0.028,-0.023,-0.021,105.0,114.0,101.0,13.3,1505.3,324.5,-0.7,1.8,2470.348,13.32,0.036,129.4
2020-09-13T08:52:03,42.805,6.029,0.04,-0.009,0.014,104.0,114.0,101.0,13.4,1505.3,327.4,-0.7,1.9,2470.346,13.32,0.041,102.7
2020-09-13T08:55:03,42.805,6.029,0.028,0.01,0.0,104.0,117.0,102.0,13.3,1505.3,323.5,-0.7,1.8,2470.321,13.32,0.029,70.4
2020-09-13T08:58:02,42.805,6.029,0.053,-0.011,-0.018,103.0,114.0,103.0,13.4,1505.3,327.1,-0.7,1.9,2470.317,13.32,0.054,101.7
2020-09-13T09:04:03,42.805,6.029,0.047,-0.004,-0.013,104.0,115.0,101.0,13.4,1505.2,323.8,-0.7,1.8,2470.372,13.3,0.047,94.9
2020-09-13T09:07:03,42.805,6.029,0.025,0.005,-0.001,104.0,116.0,102.0,13.3,1505.3,324.7,-0.7,1.8,2470.363,13.31,0.025,78.7
2020-09-13T09:10:03,42.805,6.029,0.047,-0.016,-0.007,103.0,112.0,102.0,13.4,1505.3,324.9,-0.7,1.8,2470.315,13.31,0.049,108.8
2020-09-13T09:13:03,42.805,6.029,0.048,0.0,-0.006,104.0,112.0,102.0,13.4,1505.3,326.0,-0.7,1.8,2470.331,13.32,0.048,90.0
2020-09-13T09:16:04,42.805,6.029,0.029,-0.011,-0.017,106.0,111.0,103.0,13.4,1505.3,325.6,-0.7,1.8,2470.349,13.32,0.031,110.8
2020-09-13T09:19:03,42.805,6.029,0.048,-0.017,0.002,103.0,110.0,102.0,13.4,1505.3,326.8,-0.7,1.8,2470.341,13.32,0.05,109.5
2020-09-13T09:22:03,42.805,6.029,0.047,-0.016,0.003,102.0,110.0,102.0,13.3,1505.3,325.5,-0.7,1.8,2470.386,13.32,0.049,108.8
2020-09-13T09:25:03,42.805,6.029,0.048,-0.003,0.021,104.0,114.0,103.0,13.4,1505.3,323.5,-0.7,1.8,2470.334,13.32,0.048,93.6
2020-09-13T09:28:03,42.805,6.029,0.05,-0.007,0.012,105.0,112.0,101.0,13.4,1505.3,325.7,-0.7,1.8,2470.385,13.32,0.05,98.0
2020-09-13T09:31:03,42.805,6.029,0.035,-0.003,-0.023,105.0,110.0,101.0,13.4,1505.3,325.0,-0.7,1.8,2470.307,13.32,0.035,94.9
2020-09-13T09:34:03,42.805,6.029,0.041,-0.016,0.002,104.0,117.0,101.0,13.4,1505.3,324.9,-0.7,1.8,2470.365,13.32,0.044,111.3
2020-09-13T09:37:03,42.805,6.029,0.05,0.004,0.001,105.0,113.0,103.0,13.4,1505.3,325.6,-0.7,1.8,2470.353,13.32,0.05,85.4
2020-09-13T09:40:05,42.805,6.029,0.047,-0.003,0.017,104.0,108.0,103.0,13.4,1505.3,326.5,-0.7,1.8,2470.311,13.32,0.047,93.6
2020-09-13T09:43:03,42.805,6.029,0.038,0.003,-0.018,103.0,112.0,103.0,13.4,1505.3,322.8,-0.7,1.8,2470.32,13.32,0.038,85.5
2020-09-13T09:46:03,42.805,6.029,0.06,-0.011,0.021,104.0,111.0,102.0,13.3,1505.3,327.6,-0.7,1.8,2470.317,13.32,0.06,100.4
2020-09-13T09:49:02,42.805,6.029,0.044,-0.004,-0.02,104.0,113.0,101.0,13.4,1505.3,325.3,-0.7,1.8,2470.307,13.32,0.044,95.2
2020-09-13T09:52:03,42.805,6.029,0.06,-0.03,-0.02,103.0,113.0,102.0,13.4,1505.3,325.7,-0.7,1.8,2470.271,13.32,0.067,116.6
2020-09-13T09:55:03,42.805,6.029,0.061,-0.01,-0.008,104.0,111.0,101.0,13.4,1505.3,326.7,-0.7,1.8,2470.304,13.32,0.061,99.3
2020-09-13T09:58:03,42.805,6.029,0.035,0.001,-0.017,104.0,110.0,102.0,13.4,1505.3,323.8,-0.7,1.8,2470.296,13.32,0.035,88.4
2020-09-13T10:04:03,42.805,6.029,0.035,-0.015,-0.031,103.0,109.0,102.0,13.4,1505.2,324.2,-0.7,1.8,2470.333,13.3,0.038,113.2
2020-09-13T10:07:02,42.805,6.029,0.041,-0.009,0.016,103.0,111.0,101.0,13.4,1505.3,325.7,-0.7,1.8,2470.349,13.31,0.041,102.4